• Em Portugal
  • Lista de países
  • Para 7 dias
  • Temperatura da água
  • Mapas de satélite
  • Mapa do tempo
  • Widgets de tempo
  • user-avatar
    Iniciar Sessão

    Previsão horária em Brasília

    Hoje, 21 Setembro, Quinta-feira

    Tempo Temperatura Precipitação Vento Pressão Humidade
    00:00 +24°C° 0 mm 3 m/s 668 mmHg 36%
    01:00 +22°C° 0 mm 3 m/s 668 mmHg 38%
    02:00 +21°C° 0 mm 4 m/s 667 mmHg 39%
    03:00 +21°C° 0 mm 4 m/s 667 mmHg 41%
    04:00 +20°C° 0 mm 4 m/s 667 mmHg 46%
    05:00 +19°C° 0 mm 5 m/s 667 mmHg 51%
    06:00 +19°C° 0 mm 5 m/s 668 mmHg 56%
    07:00 +20°C° 0 mm 5 m/s 668 mmHg 53%
    08:00 +22°C° 0 mm 5 m/s 669 mmHg 49%
    09:00 +23°C° 0 mm 6 m/s 670 mmHg 46%
    10:00 +26°C° 0 mm 5 m/s 670 mmHg 41%
    11:00 +28°C° 0 mm 5 m/s 670 mmHg 35%
    12:00 +30°C° 0 mm 4 m/s 670 mmHg 29%
    13:00 +30°C° 0 mm 4 m/s 669 mmHg 28%
    14:00 +30°C° 0 mm 4 m/s 669 mmHg 27%
    15:00 +30°C° 0 mm 3 m/s 668 mmHg 25%
    16:00 +29°C° 0 mm 3 m/s 668 mmHg 27%
    17:00 +29°C° 0 mm 3 m/s 668 mmHg 29%
    18:00 +28°C° 0 mm 3 m/s 668 mmHg 31%
    19:00 +26°C° 0,1 mm 3 m/s 668 mmHg 34%
    20:00 +25°C° 0,1 mm 3 m/s 668 mmHg 38%
    21:00 +23°C° 0,1 mm 4 m/s 668 mmHg 42%
    22:00 +24°C° 0 mm 3 m/s 668 mmHg 42%
    23:00 +22°C° 0 mm 3 m/s 668 mmHg 43%

    Amanhã, 22 Setembro, Sexta-feira

    Tempo Temperatura Precipitação Vento Pressão Humidade
    00:00 +22°C° 0 mm 3 m/s 668 mmHg 44%
    01:00 +21°C° 0 mm 3 m/s 668 mmHg 44%
    02:00 +21°C° 0 mm 3 m/s 667 mmHg 44%
    03:00 +20°C° 0 mm 2 m/s 667 mmHg 44%
    04:00 +20°C° 0 mm 3 m/s 667 mmHg 46%
    05:00 +19°C° 0 mm 3 m/s 667 mmHg 48%
    06:00 +19°C° 0 mm 3 m/s 667 mmHg 50%
    07:00 +20°C° 0 mm 4 m/s 668 mmHg 48%
    08:00 +22°C° 0 mm 4 m/s 669 mmHg 46%
    09:00 +23°C° 0 mm 5 m/s 670 mmHg 44%
    10:00 +26°C° 0 mm 4 m/s 670 mmHg 39%
    11:00 +28°C° 0 mm 4 m/s 670 mmHg 35%
    12:00 +30°C° 0 mm 4 m/s 670 mmHg 31%
    13:00 +30°C° 0 mm 4 m/s 669 mmHg 30%
    14:00 +30°C° 0 mm 4 m/s 668 mmHg 29%
    15:00 +30°C° 0 mm 4 m/s 667 mmHg 28%
    16:00 +29°C° 0 mm 4 m/s 667 mmHg 30%
    17:00 +28°C° 0 mm 4 m/s 667 mmHg 33%
    18:00 +27°C° 0 mm 4 m/s 667 mmHg 35%
    19:00 +26°C° 0,1 mm 4 m/s 667 mmHg 38%
    20:00 +25°C° 0,1 mm 3 m/s 668 mmHg 41%
    21:00 +24°C° 0,1 mm 3 m/s 668 mmHg 43%
    22:00 +24°C° 0 mm 3 m/s 668 mmHg 42%
    23:00 +22°C° 0 mm 3 m/s 668 mmHg 41%

    Depois de amanhã, 23 Setembro, Sábado

    Tempo Temperatura Precipitação Vento Pressão Humidade
    00:00 +22°C° 0 mm 3 m/s 668 mmHg 40%
    01:00 +22°C° 0 mm 3 m/s 667 mmHg 39%
    02:00 +21°C° 0 mm 3 m/s 667 mmHg 38%
    03:00 +21°C° 0 mm 3 m/s 666 mmHg 37%
    04:00 +20°C° 0 mm 3 m/s 667 mmHg 39%
    05:00 +20°C° 0 mm 3 m/s 667 mmHg 41%
    06:00 +19°C° 0 mm 4 m/s 667 mmHg 43%
    07:00 +21°C° 0 mm 4 m/s 668 mmHg 41%
    08:00 +22°C° 0 mm 5 m/s 669 mmHg 39%
    09:00 +25°C° 0 mm 5 m/s 669 mmHg 37%
    10:00 +27°C° 0 mm 4 m/s 669 mmHg 33%
    11:00 +29°C° 0 mm 4 m/s 669 mmHg 30%
    12:00 +31°C° 0 mm 3 m/s 669 mmHg 26%
    13:00 +32°C° 0 mm 2 m/s 668 mmHg 24%
    14:00 +32°C° 0 mm 2 m/s 667 mmHg 23%
    15:00 +34°C° 0 mm 2 m/s 667 mmHg 21%
    16:00 +32°C° 0 mm 2 m/s 667 mmHg 23%
    17:00 +30°C° 0 mm 2 m/s 666 mmHg 25%
    18:00 +29°C° 0 mm 2 m/s 666 mmHg 28%
    19:00 +28°C° 0 mm 2 m/s 667 mmHg 29%
    20:00 +28°C° 0 mm 2 m/s 667 mmHg 31%
    21:00 +27°C° 0 mm 2 m/s 667 mmHg 32%
    22:00 +27°C° 0 mm 2 m/s 667 mmHg 32%
    23:00 +26°C° 0 mm 3 m/s 667 mmHg 32%

    24 Setembro, Domingo

    Tempo Temperatura Precipitação Vento Pressão Humidade
    00:00 +26°C° 0 mm 3 m/s 667 mmHg 33%
    01:00 +25°C° 0 mm 3 m/s 667 mmHg 33%
    02:00 +24°C° 0 mm 3 m/s 666 mmHg 34%
    03:00 +24°C° 0 mm 3 m/s 666 mmHg 35%
    04:00 +22°C° 0 mm 3 m/s 666 mmHg 39%
    05:00 +21°C° 0 mm 4 m/s 666 mmHg 43%
    06:00 +20°C° 0 mm 4 m/s 667 mmHg 47%
    07:00 +22°C° 0 mm 4 m/s 667 mmHg 45%
    08:00 +23°C° 0 mm 4 m/s 668 mmHg 43%
    09:00 +26°C° 0 mm 5 m/s 669 mmHg 41%
    10:00 +28°C° 0 mm 4 m/s 669 mmHg 35%
    11:00 +30°C° 0 mm 3 m/s 668 mmHg 30%
    12:00 +33°C° 0 mm 3 m/s 668 mmHg 24%
    13:00 +32°C° 0 mm 2 m/s 668 mmHg 24%
    14:00 +32°C° 0 mm 2 m/s 667 mmHg 23%
    15:00 +32°C° 0 mm 2 m/s 666 mmHg 22%
    16:00 +31°C° 0 mm 2 m/s 666 mmHg 24%
    17:00 +30°C° 0 mm 2 m/s 666 mmHg 25%
    18:00 +29°C° 0 mm 2 m/s 666 mmHg 27%
    19:00 +29°C° 0 mm 2 m/s 666 mmHg 28%
    20:00 +28°C° 0 mm 2 m/s 667 mmHg 30%
    21:00 +27°C° 0 mm 2 m/s 667 mmHg 31%
    22:00 +26°C° 0 mm 2 m/s 667 mmHg 33%
    23:00 +25°C° 0 mm 2 m/s 666 mmHg 34%

    25 Setembro, Segunda-feira

    Tempo Temperatura Precipitação Vento Pressão Humidade
    00:00 +25°C° 0 mm 2 m/s 666 mmHg 36%
    01:00 +24°C° 0 mm 2 m/s 666 mmHg 37%
    02:00 +23°C° 0 mm 2 m/s 666 mmHg 39%
    03:00 +23°C° 0 mm 2 m/s 665 mmHg 40%
    04:00 +21°C° 0 mm 3 m/s 666 mmHg 44%
    05:00 +21°C° 0 mm 4 m/s 666 mmHg 48%
    06:00 +21°C° 0 mm 4 m/s 667 mmHg 52%
    07:00 +22°C° 0 mm 4 m/s 667 mmHg 49%
    08:00 +25°C° 0 mm 5 m/s 668 mmHg 46%
    09:00 +27°C° 0 mm 5 m/s 669 mmHg 43%
    10:00 +28°C° 0 mm 4 m/s 669 mmHg 37%
    11:00 +30°C° 0 mm 4 m/s 669 mmHg 32%
    12:00 +33°C° 0 mm 3 m/s 669 mmHg 27%
    13:00 +33°C° 0 mm 3 m/s 668 mmHg 27%
    14:00 +31°C° 0 mm 3 m/s 667 mmHg 27%
    15:00 +31°C° 0 mm 3 m/s 667 mmHg 28%
    16:00 +30°C° 0 mm 2 m/s 667 mmHg 29%
    17:00 +29°C° 0 mm 2 m/s 667 mmHg 31%
    18:00 +29°C° 0 mm 2 m/s 666 mmHg 32%
    19:00 +28°C° 0 mm 2 m/s 667 mmHg 34%
    20:00 +27°C° 0 mm 2 m/s 667 mmHg 37%
    21:00 +26°C° 0 mm 2 m/s 667 mmHg 39%
    22:00 +25°C° 0 mm 3 m/s 667 mmHg 39%
    23:00 +25°C° 0 mm 3 m/s 667 mmHg 39%

    26 Setembro, Terça-feira

    Tempo Temperatura Precipitação Vento Pressão Humidade
    00:00 +24°C° 0 mm 3 m/s 667 mmHg 38%
    01:00 +24°C° 0 mm 3 m/s 666 mmHg 36%
    02:00 +22°C° 0 mm 4 m/s 666 mmHg 33%
    03:00 +22°C° 0 mm 5 m/s 666 mmHg 30%
    04:00 +21°C° 0 mm 5 m/s 666 mmHg 33%
    05:00 +20°C° 0 mm 5 m/s 666 mmHg 36%
    06:00 +20°C° 0 mm 5 m/s 667 mmHg 39%
    07:00 +21°C° 0 mm 5 m/s 667 mmHg 39%
    08:00 +22°C° 0 mm 5 m/s 668 mmHg 38%
    09:00 +25°C° 0 mm 5 m/s 669 mmHg 38%
    10:00 +27°C° 0 mm 5 m/s 669 mmHg 34%
    11:00 +29°C° 0 mm 4 m/s 669 mmHg 30%
    12:00 +32°C° 0 mm 4 m/s 669 mmHg 27%
    13:00 +32°C° 0 mm 4 m/s 668 mmHg 25%
    14:00 +33°C° 0 mm 3 m/s 667 mmHg 24%
    15:00 +33°C° 0 mm 3 m/s 666 mmHg 22%
    16:00 +31°C° 0 mm 3 m/s 666 mmHg 24%
    17:00 +30°C° 0 mm 3 m/s 666 mmHg 26%
    18:00 +29°C° 0 mm 2 m/s 666 mmHg 27%
    19:00 +28°C° 0 mm 3 m/s 666 mmHg 29%
    20:00 +27°C° 0 mm 3 m/s 666 mmHg 31%
    21:00 +26°C° 0 mm 3 m/s 666 mmHg 32%
    22:00 +25°C° 0 mm 3 m/s 666 mmHg 33%
    23:00 +24°C° 0 mm 3 m/s 666 mmHg 34%
    Mostrar mais